Regional Weather Roundup
Issued by NWS

Home | Current Version | Previous Version | Graphics & Text | Print | Product List | Glossary On
Versions: 1 2 3 4 5 6 7 8 9 10 11 12 13 14 15 16 17 18 19 20 21 22 23 24 25 26 27 28 29 30 31 32 33 34 35 36 37 38 39 40 41 42 43 44 45 46 47 48 49 50
000
ASUS43 KFSD 300510
RWRSD

WEATHER ROUNDUP FOR SOUTH DAKOTA
NATIONAL WEATHER SERVICE SIOUX FALLS SD
1200 AM CDT FRI SEP 30 2016

NOTE: "FAIR" INDICATES FEW OR NO CLOUDS BELOW 12,000 FEET WITH NO
SIGNIFICANT WEATHER AND/OR OBSTRUCTIONS TO VISIBILITY.


SDZ001>005-009-010-012>017-300600-
NORTHWEST AND NORTH CENTRAL SOUTH DAKOTA

CITY           SKY/WX    TMP DP  RH WIND       PRES   REMARKS
BUFFALO          N/A     65  41  41 SE20G26   30.06S
FAITH            N/A     57  43  59 SE24G32   30.17F
MOBRIDGE       CLOUDY    57  45  64 SE15      30.23F
$$

SDZ012>016-024>037-041>051-057-063-072>074-300600-
SOUTHWEST AND SOUTH CENTRAL SOUTH DAKOTA

CITY           SKY/WX    TMP DP  RH WIND       PRES   REMARKS
RAPID CTY ARPT PTCLDY    61  44  53 S14       30.19S
PIERRE         CLEAR     56  47  71 SE14      30.25F
CUSTER         CLOUDY    58  40  51 SW5       30.29F
ELLSWORTH AFB  PTCLDY    63  44  50 S15       30.17S
PHILIP         CLEAR     56  41  57 E8        30.20F
PINE RIDGE     CLEAR     63  41  44 S21G32    30.20F
WINNER         FAIR      53  45  74 SE12      30.29F
$$

SDZ004>011-016>023-039-040-300600-
NORTHEAST SOUTH DAKOTA

CITY           SKY/WX    TMP DP  RH WIND       PRES   REMARKS
ABERDEEN       CLEAR     48  44  86 SE7       30.33S
WATERTOWN      CLEAR     53  46  77 SE7       30.35F
BROOKINGS      CLEAR     50  46  86 SE8       30.36S
SISSETON         N/A     45  43  93 SW5       30.37R
$$

SDZ017-020-022-023-036>040-048>070-300600-
SOUTHEAST SOUTH DAKOTA

CITY           SKY/WX    TMP DP  RH WIND       PRES   REMARKS
SIOUX FALLS    CLEAR     49  45  86 NE5       30.36S
HURON          CLEAR     49  45  86 SE7       30.33R
CHAMBERLAIN    CLEAR     53  48  83 SE8       30.31S
MITCHELL       CLEAR     50  46  86 S6        30.34S
YANKTON        CLEAR     52  46  82 CALM      30.33S
$$

ABBREVIATIONS USED IN REMARKS
   TC - TEMPERATURE IN CELSIUS
  WCI - WIND CHILL INDEX
   HX - HEAT INDEX
  VSB - VISIBILITY





USA.gov is the U.S. government's official web portal to all federal, state and local government web resources and services.